FW6645 Weather Reports


time (UTC)temp
F
wind
direction
speed
knots
gust
knots
rain 1hr
in
rain 24hr
in
rain mn
in
humidity
%
barometer
mb
20260507033058 64 44 2.6 4.3 0.00 0.00 0.00 26 1003.2
20260507031556 65 60 1.7 4.3 0.00 0.00 0.00 26 1002.8
20260507030050 66 61 2.6 5.2 0.00 0.00 0.00 25 1002.5
20260507024548 67 68 3.5 5.2 0.00 0.00 0.00 25 1002.1
20260507023045 68 37 4.3 7.8 0.00 0.00 0.00 24 1001.8
20260507021543 69 69 5.2 8.7 0.00 0.00 0.00 23 1001.7
20260507020036 70 60 7.0 10.4 0.00 0.00 0.00 23 1001.5
20260507014532 71 53 4.3 7.8 0.00 0.00 0.00 22 1001.3
20260507013028 72 69 6.1 9.6 0.00 0.00 0.00 22 1001.0
20260507011526 72 59 7.0 11.3 0.00 0.00 0.00 23 1000.9
20260507010026 73 56 6.1 11.3 0.00 0.00 0.00 23 1000.7
20260507004521 73 117 0.0 8.7 0.00 0.00 0.00 22 1000.5
20260507003021 73 61 3.5 7.8 0.00 0.00 0.00 23 1000.5
20260507001518 73 99 5.2 8.7 0.00 0.00 0.00 24 1000.3
20260507000120 73 44 6.1 11.3 0.00 0.00 0.00 24 1000.2
20260506234512 73 63 3.5 11.3 0.00 0.00 0.00 23 1000.2
20260506233013 73 57 7.8 11.3 0.00 0.00 0.00 23 1000.1
20260506231509 74 35 7.8 13.0 0.00 0.00 0.00 22 1000.2
20260506230018 74 70 5.2 10.4 0.00 0.00 0.00 22 1000.2
20260506224503 74 89 5.2 12.2 0.00 0.00 0.00 21 1000.1
20260506223002 73 345 3.5 12.2 0.00 0.00 0.00 20 1000.1
20260506221629 74 53 1.7 11.3 0.00 0.00 0.00 20 1000.1
20260506220132 74 59 2.6 11.3 0.00 0.00 0.00 20 1000.2
20260506214527 72 64 0.0 8.7 0.00 0.00 0.00 21 1000.1
20260506213027 73 65 3.5 9.6 0.00 0.00 0.00 21 1000.1
20260506211530 73 86 0.0 10.4 0.00 0.00 0.00 21 999.9
20260506210028 73 11 0.0 12.2 0.00 0.00 0.00 20 1000.0
20260506204523 72 69 4.3 11.3 0.00 0.00 0.00 21 999.8
20260506203023 73 359 4.3 11.3 0.00 0.00 0.00 21 999.7
20260506201529 73 15 2.6 11.3 0.00 0.00 0.00 22 999.6
20260506200019 72 290 7.8 15.6 0.00 0.00 0.00 22 999.5
20260506194517 72 332 5.2 13.0 0.00 0.00 0.00 23 999.7
20260506193023 71 319 7.0 13.9 0.00 0.00 0.00 24 1000.0
20260506191513 70 276 4.3 13.0 0.00 0.00 0.00 24 1000.0
20260506190021 70 319 5.2 12.2 0.00 0.00 0.00 25 1000.2
20260506184519 71 290 3.5 14.8 0.00 0.00 0.00 25 1000.5
20260506183010 70 334 1.7 9.6 0.00 0.00 0.00 25 1001.0
20260506181512 70 333 1.7 12.2 0.00 0.00 0.00 25 1001.1
20260506180018 68 330 4.3 13.0 0.00 0.00 0.00 27 1001.4
20260506174521 69 295 2.6 13.0 0.00 0.00 0.00 26 1001.4
20260506173007 68 72 4.3 10.4 0.00 0.00 0.00 28 1001.4
20260506171550 67 304 7.0 12.2 0.00 0.00 0.00 28 1001.4
20260506170041 66 325 5.2 10.4 0.00 0.00 0.00 30 1001.5
20260506164535 66 309 6.1 12.2 0.00 0.00 0.00 30 1001.4
20260506163036 65 295 4.3 10.4 0.00 0.00 0.00 30 1001.4
20260506161536 64 231 3.5 13.9 0.00 0.00 0.00 31 1001.4
20260506160035 63 301 5.2 11.3 0.00 0.00 0.00 31 1001.8
20260506154530 63 272 7.8 13.0 0.00 0.00 0.00 31 1001.8
20260506153029 62 265 5.2 13.0 0.00 0.00 0.00 31 1001.5
20260506151533 61 301 6.1 16.5 0.00 0.00 0.00 32 1001.5
20260506150028 62 284 7.0 13.9 0.00 0.00 0.00 31 1001.3
20260506144525 61 283 5.2 9.6 0.00 0.00 0.00 32 1001.3
20260506143026 60 302 1.7 4.3 0.00 0.00 0.00 32 1001.4
20260506141522 59 290 1.7 7.0 0.00 0.00 0.00 33 1001.6
20260506140027 59 276 3.5 8.7 0.00 0.00 0.00 33 1001.5
20260506134520 58 295 2.6 6.1 0.00 0.00 0.00 33 1001.3
20260506133020 58 302 3.5 7.0 0.00 0.00 0.00 34 1001.0
20260506131516 58 279 1.7 7.0 0.00 0.00 0.00 33 1000.9
20260506130012 57 245 0.0 5.2 0.00 0.00 0.00 34 1000.7
20260506124508 56 354 2.6 7.0 0.00 0.00 0.00 34 1000.4
20260506123007 56 26 3.5 7.8 0.00 0.00 0.00 34 1000.1
20260506121503 56 267 0.9 5.2 0.00 0.00 0.00 34 999.8
20260506120103 57 266 4.3 9.6 0.00 0.00 0.00 33 999.7
20260506114557 57 235 3.5 7.0 0.00 0.00 0.00 33 999.5
20260506113053 57 263 1.7 6.1 0.00 0.00 0.00 33 999.4
20260506111551 57 262 1.7 6.1 0.00 0.00 0.00 32 999.2
20260506110049 57 251 2.6 7.8 0.00 0.00 0.00 31 999.2
20260506104554 58 301 2.6 6.1 0.00 0.00 0.00 31 999.1
20260506103015 58 293 2.6 7.0 0.00 0.00 0.00 30 999.0
20260506101516 59 214 2.6 7.0 0.00 0.00 0.00 30 998.8
20260506100021 59 283 0.9 8.7 0.00 0.00 0.00 30 998.8
20260506094512 59 310 2.6 10.4 0.00 0.00 0.00 30 998.6
20260506094509 59 272 2.6 10.4 0.00 0.00 0.00 30 998.6
20260506093007 59 248 3.5 10.4 0.00 0.00 0.00 30 998.6
20260506091507 59 250 1.7 10.4 0.00 0.00 0.00 30 998.4
20260506090003 59 248 4.3 9.6 0.00 0.00 0.00 30 998.4
20260506084503 59 224 4.3 10.4 0.00 0.00 0.00 30 998.4
20260506083101 59 229 5.2 11.3 0.00 0.00 0.00 30 998.4
20260506081558 59 226 6.1 10.4 0.00 0.00 0.00 30 998.4
20260506073050 59 240 3.5 11.3 0.00 0.00 0.00 30 998.3
20260506071555 60 219 6.1 17.4 0.00 0.00 0.00 30 998.2
20260506061536 61 219 5.2 14.8 0.00 0.00 0.00 27 997.3
20260506044528 63 226 2.6 12.2 0.00 0.00 0.00 25 996.3
20260506043017 64 262 5.2 16.5 0.00 0.00 0.00 24 996.2
20260506041514 64 266 4.3 9.6 0.00 0.00 0.00 23 995.9
20260506040008 64 221 3.5 11.3 0.00 0.00 0.00 23 995.6
20260506034504 65 289 7.8 14.8 0.00 0.00 0.00 23 995.3